sat.trackr.live / text

‹ back to catalog

GSAT-15 (GAGAN/PRN 139)

NORAD 41028 · 2015-065A

PAYLOAD ACTIVE UNKNOWN

§ Identity

Operator
Country
IND
Launch date
2015-11-10
Launch site
FRGUI
Launch vehicle
Mass (kg)
RCS (m²)
44.21

Purposes: comms, nav

External: N2YO · Heavens-Above · Gunter

§ Orbital elements

Epoch: 2026-09-20T01:58:07.055040Z

Period
1,436.08 min
Inclination
0.0206°
Eccentricity
0.0002020
Mean motion
1.00272878 rev/d
Perigee alt
35,777.8 km
Apogee alt
35,794.8 km
Semi-major
42,164.4 km
B*
0.0000e+0
RAAN
243.1258°
Arg perigee
271.6222°
Mean anomaly
327.2451°
Rev number
3,975

§ Raw data

GSAT-15 (GAGAN/PRN 139)1 41028U 15065A   26263.08202610 -.00000262  00000+0  00000+0 0  99992 41028   0.0206 243.1258 0002020 271.6222 327.2451  1.00272878 39759

JSON: /api/v1/satellites/41028 · /tle

For live sub-satellite position, see the globe view (requires WebGL).

§ Visibility from observer

Set your observer location to see the next 7 days of passes ≥ 10°. The values pass through the URL so the page stays shareable.

No JS? Fill the form by hand. The geolocation button needs JavaScript.